C/2003 H3 (NEAT)                                                      

Epoch 2003 May 1.0 TT = JDT 2452760.5  

T 2003 Apr. 24.23706 TT                                 Nakano

q   2.9014585            (2000.0)            P               Q

z  +0.0000931      Peri.    6.47897     +0.07267760     +0.73000052

 +/-0.0000009      Node   269.41794     -0.94285072     -0.17187705

e   0.9997299      Incl.   42.81289     -0.32519299     +0.66148131

From 740 observations 2003 Apr. 30-2004 Oct. 12, mean residual 0".60.

   (1/a)org.= +0.000401, (1/a)fut.= -0.000151 (+/-0.000001), Q= 8.

Residuals in seconds of arc 

2003/                     030621 215  0.5+  0.0     030803 232  1.2-  0.6+  

030430 608  0.6-  0.4+    030621 215  0.3+  0.1+    030803 232  0.0   0.5+  

030430 608  1.0-  1.2+    030621 215  0.2+  0.0     030803 232  0.3+  0.5+  

030430 608  1.1-  1.2+    030622 232  0.3+  0.8-    030803 349  0.0   0.8-  

030501 J87  0.6+  0.7+    030622 232  0.5+  0.1+    030803 349  0.0   0.8-  

030501 J87  0.5+  0.1-    030622 232  0.0   0.5+    030803 349  0.2-  0.9-  

030501 J87  1.3+  0.1-    030622 H41  0.5+  0.3-    030803 349  0.1-  0.8-  

030501 J87  0.7+  0.6-    030623 H41  0.2+  0.6-    030803 349  0.0   0.6-  

030501 J87  0.0   1.8-    030623 H41  0.3+  0.0     030803 213  0.7-  0.1-  

030501 941  1.1-  0.5+    030624 785  0.0   0.4-    030803 213  0.8-  0.1-  

030501 941  1.2-  0.7+    030624 785  0.2+  0.4-    030803 048  0.3+  1.3-  

030501 941  1.4-  0.7+    030624 H41  0.1+  0.4-    030803 048  0.4+  1.6-  

030501 941  1.0-  0.7+    030624 H41  0.0   0.6-    030803 213  0.1+  0.2-  

030501 941  1.2-  0.1-    030624 127  0.4+  0.1+    030803 048  1.0+  1.1-  

030501 941  0.9-  0.4+    030624 127  0.5+  0.2+    030803 048  0.9+  0.6-  

030501 854  1.3-  0.0     030625 127  0.6+  0.0     030803 048  0.6+  0.1+  

030501 854  0.4-  0.1-    030625 H41  0.1+  0.6-    030804 952  0.1+  0.1+  

030501 854  0.1+  0.4+    030625 H41  0.7+  0.2-    030804 952  0.1+  0.3+  

030501 854  0.1-  0.2+    030626 118  0.1+  0.5-    030804 952  0.2-  0.1+  

030501 854  0.1+  0.0     030626 118  0.2+  0.6-    030804 952  0.2+  0.5+  

030501 704  0.3-  1.0-    030626 118  0.3+  0.1-    030804 048  1.0-  0.2+  

030501 673  0.2+  0.5+    030627 H41  0.3+  0.2-    030804 048  0.4-  0.1+  

030501 673  0.3+  0.5+    030627 H41  0.1+  0.6-    030804 048  0.2-  0.3+  

030501 704  0.6+  1.6-    030628 H41  0.9-  1.4-    030804 048  0.1-  0.0   

030501 673  0.6+  0.3+    030628 H41  0.5+  0.9-    030804 048  0.1+  0.9-  

030501 704 (2.4+  1.3+)   030628 H41  0.2+  0.7-    030804 A32  0.2+  0.2-  

030501 673  0.3+  0.7+    030628 616  0.3-  0.3-    030804 A32  0.1-  0.0   

030501 704  0.5+  0.4+    030628 616  0.6+  0.0     030804 A32  0.3-  0.4-  

030501 673  0.6+  1.1+    030628 616  1.2+  0.2+    030804 A32  0.7-  0.2+  

030501 704  0.9-  1.1+    030629 213 (2.2-  3.1-)   030805 H72 (2.7-  0.3+) 

030501 673  0.8+  0.9+    030629 213  1.1-  0.3-    030805 H72  1.9-  0.1-  

030501 926  0.1+  0.3+    030629 213  0.7-  0.9-    030805 H72  1.9-  0.2-  

030501 926  0.0   0.5+    030629 704  0.1-  0.4+    030805 H72  0.2-  0.5+  

030501 926  0.4-  0.1-    030629 704  0.1+  0.0     030805 H72  0.1+  0.1-  

030501 673  0.8+  0.9+    030629 704  0.3+  0.4-    030805 048  0.5+  0.1+  

030501 673  0.8+  0.2+    030629 704  0.4+  0.2-    030805 048  0.4+  0.5+  

030501 349  0.1-  0.4-    030629 704  0.2+  0.0     030805 048  0.2+  0.5+  

030501 349  0.6-  0.0     030702 785  0.3+  0.4+    030805 048  0.3-  0.4+  

030501 349  0.1+  0.2+    030702 785  0.2+  1.3-    030805 048  0.6-  0.1+  

030501 349  0.2+  0.5+    030702 048  0.2+  0.3-    030805 442  0.7+  0.2-  

030501 349  0.2-  0.0     030702 048  0.0   0.7-    030805 A32  0.1-  0.0   

030502 H41  0.3+  0.4-    030702 048  0.2-  0.4-    030805 A32  0.4-  0.3+  

030502 H41  0.2+  1.5+    030702 048  0.1-  0.5-    030805 A32  0.3-  0.0   

030502 340  0.1+  0.0     030702 048  0.2+  0.1-    030805 A32  0.2-  0.1+  

030502 340  0.1+  1.1+    030704 H41  1.9+  0.7+    030806 A46  0.8-  0.4+  

030502 340  0.2-  1.1+    030704 H41  0.3+  0.0     030806 A46  1.5-  0.4-  

030502 340  0.8+  0.5+    030705 212  0.2+  0.2-    030806 A46  0.6-  0.1-  

030502 340  0.6-  1.7+    030705 212  0.2+  0.1+    030806 A46  1.8-  0.8-  

030503 D83  0.3-  0.1+    030705 212  0.4+  0.7+    030806 A46  0.9-  0.3-  

030503 D83 (2.9-  2.6+)   030705 704  0.7-  0.5-    030806 A46  0.7-  0.7-  

030503 D83  1.7+  1.5+    030705 704  0.1+  0.9-    030806 379  0.4-  0.1+  

030503 372  0.1-  1.4+    030705 704  0.1+  1.6-    030806 379  0.3+  0.2-  

030503 349  0.1-  0.3+    030705 H41  0.2+  0.2+    030806 379  0.6-  0.2+  

030503 349  0.6-  0.1+    030705 H41  0.0   0.2-    030806 379  0.7-  0.1+  

030503 349  0.1+  0.6+    030706 H41  0.4+  0.6-    030806 379  1.0-  0.0   

030503 349  0.4+  0.4+    030706 H41  0.9+  0.1+    030806 048  0.3-  0.4+  

030503 349  0.7+  0.5+    030707 H41  0.2+  0.2+    030806 048  0.1+  0.0   

030504 170  0.4-  0.4-    030707 H41  0.2+  0.2-    030806 048  0.3-  0.1+  

030504 170  1.7-  0.5+    030707 379  0.4-  0.9-    030806 048  0.1+  0.8+  

030505 048  0.4+  0.3-    030707 379  0.3+  0.4-    030806 048  0.3+  0.7+  

030505 048  0.4+  0.5-    030707 379  0.2+  1.0-    030806 A32  0.1+  0.0   

030505 048  0.7-  0.7-    030707 379  0.5-  0.2-    030806 A32  0.2+  0.0   

030505 048  1.0-  0.3-    030707 048  0.1-  0.0     030807 A46  0.1-  0.0   

030505 048  0.6-  0.7+    030707 048  0.1+  0.2-    030807 A46  0.3-  0.6-  

030505 048  0.5+  1.3+    030707 048  0.4-  0.4-    030807 A46  0.0   0.3+  

030506 118  0.0   0.6+    030707 048  0.1+  0.1+    030807 A32  0.5+  0.1+  

030506 118  0.3+  0.3+    030707 048  0.4+  0.3+    030807 A46  0.2+  0.3+  

030506 118  0.0   0.8+    030708 785  0.0   0.8-    030807 A46  0.1+  0.0   

030508 048  1.8+  0.8+    030708 785  0.3-  0.9-    030807 A46  0.1-  0.4+  

030508 048  1.4+  1.0+    030709 H41  0.3+  0.1+    030807 A32  0.0   0.7+  

030508 048 (2.6+  0.1-)   030709 H41  0.1+  0.4+    030808 J87  0.0   0.4-  

030508 048 (2.6+  0.2+)   030709 947 (0.6-  2.8-)   030808 J87  0.8-  0.4+  

030508 372  0.8-  1.3+    030709 947  0.3+  0.4-    030808 J87  0.0   1.0+  

030509 372  1.8-  0.2-    030709 947  0.3+  0.2+    030809 379  0.9+  0.0   

030509 349  0.6+  0.7+    030709 939  0.6-  0.2-    030809 379  0.1+  0.4-  

030509 349 (0.5-  2.0+)   030709 939  0.5-  0.2-    030809 048  0.0   0.1-  

030509 340  0.5-  0.5-    030709 939  0.8-  0.0     030809 048  1.5-  0.5-  

030509 349  1.3-  0.8+    030710 213  0.8-  0.4+    030809 048  0.7-  0.2-  

030509 340  0.4-  0.2-    030710 213  0.6-  0.8+    030809 048  1.5-  0.6-  

030510 J87  0.6+  0.7+    030710 213  0.4+  0.0     030809 048 (2.6-  1.0-) 

030510 J87  0.2-  0.5-    030711 A32  0.3+  0.2-    030809 A32  0.1+  0.0   

030510 J87  0.6-  0.1+    030711 A32  0.2+  0.1-    030810 048  0.7-  0.1+  

030510 213 (3.2-  6.5-)   030711 A32  0.3+  0.3-    030810 048  0.2-  0.0   

030510 213 (1.3-  2.5-)   030711 A32  0.1+  0.1-    030810 048  0.8-  0.4-  

030510 213  0.5+  0.5+    030711 H41  0.4+  0.2+    030810 048  0.6-  0.2-  

030510 232 (3.2+  2.1+)   030711 H41  0.0   0.2+    030810 048  0.0   0.3+  

030510 232 (1.7-  2.4+)   030711 939  1.3-  1.0+    030811 A46  0.7-  0.3+  

030510 232 (8.0-  0.7+)   030711 939  1.6-  0.1-    030811 A46  0.5+  1.0+  

030510 170  0.7+  1.2-    030711 176  0.1+  0.3-    030811 A46 (0.5-  3.4+) 

030510 170  0.1-  0.5-    030711 939  1.1-  0.8-    030811 A46 (0.2+  3.7+) 

030510 170  0.4-  0.5+    030711 176  0.1-  0.2-    030811 A46  0.1+  1.9+  

030510 608  1.0-  0.7+    030711 176  0.2-  0.1-    030811 A46 (0.5-  2.0+) 

030510 608  0.1-  1.4-    030711 176  0.4-  0.1-    030812 213  0.6+  0.8-  

030510 608  0.1+  0.1-    030712 118  0.2+  0.0     030812 213  0.3+  1.0-  

030511 H41  0.3-  0.4+    030712 118  0.5+  0.3+    030814 620  0.2+  0.4+  

030513 H41  0.9+  0.3+    030712 118  0.3+  0.3+    030814 620  0.3-  0.0   

030513 H41  0.4-  0.4+    030715 A32  0.5+  0.1+    030814 762  0.0   0.1-  

030518 213  1.1+  0.9+    030715 A46  0.2-  0.6-    030814 762  0.3-  0.8+  

030518 213  0.4-  0.3+    030715 A32  0.7+  0.2-    030814 762  0.3-  0.7+  

030518 213  1.6-  0.3-    030715 A46  0.1-  0.3-    030814 762  0.2+  0.3+  

030519 H41  0.6+  0.5+    030715 A46  0.1-  0.2-    030816 H41  0.7-  0.2+  

030521 620  0.3+  0.1+    030715 A46  0.3-  0.2-    030816 H41  0.6-  0.1-  

030521 620  0.2+  0.1+    030715 A46  0.2+  0.0     030817 H41  1.0+  0.3+  

030521 620  0.3-  0.1+    030715 A46  0.6-  0.4+    030817 H41  0.9-  0.5+  

030521 620  0.5+  0.1-    030715 H41  0.4-  0.4-    030818 H41  0.8-  0.7+  

030521 620  0.0   0.4+    030715 H41  0.4-  0.4-    030818 H41  1.0-  1.1+  

030521 620  0.2+  0.1-    030715 048  0.4-  0.2-    030818 785  0.3-  1.1-  

030522 204 (2.1+  2.2+)   030715 048  0.1+  1.0-    030818 785  0.4+  0.3-  

030522 H41  1.3+  0.3-    030715 048  0.1-  0.6-    030818 213  0.4-  0.1-  

030522 H41  0.8+  0.0     030715 048  0.1+  0.0     030818 213  0.3-  0.1-  

030523 048  0.3+  0.1+    030715 048  1.0-  0.2-    030818 213  0.4-  0.2-  

030523 048  1.0+  0.6+    030716 A46  0.0   0.4-    030818 232  0.5-  0.3+  

030523 048  0.5+  0.0     030716 A46  1.6-  0.1+    030818 442  0.2-  0.1-  

030523 048  0.7-  0.1-    030716 A46  0.6-  0.4+    030818 232  0.0   0.4-  

030523 048  0.1+  0.1+    030716 A46  1.1-  0.5+    030818 232  0.0   0.3+  

030523 048  0.4-  0.1+    030716 A46  0.6-  0.9-    030818 939  0.6+  1.3-  

030523 048  0.3-  0.6-    030716 A46  1.0-  1.1-    030819 939  0.4-  0.3+  

030523 048  0.8-  0.7-    030716 H41  0.5+  0.5+    030819 939 (1.3-  2.2+) 

030523 048  0.2-  0.6-    030716 H41  0.2+  0.8+    030819 442  0.5-  1.0-  

030523 048  0.6-  0.8-    030717 H72  0.8-  0.4-    030819 442  0.2+  0.5+  

